Weather History for KHJH - January, 2012

Change the Weather History Date:

Monday, January 16, 2012

  Actual Average Record
Temperature  
Mean Temperature 32 °F -  
Max Temperature 37 °F 36 °F 61 °F (2015)
Min Temperature 26 °F 13 °F -13 °F (1977)
Degree Days  
Heating Degree Days 34    
Moisture  
Dew Point 25 °F    
Average Humidity 73    
Maximum Humidity 86    
Minimum Humidity 56    
Precipitation  
Precipitation 0.00 in - - ()
Sea Level Pressure  
Sea Level Pressure 29.72 in    
Wind  
Wind Speed 7 mph (North)    
Max Wind Speed 18 mph    
Max Gust Speed 25 mph    
Visibility 10 miles    
Events      
Averages and records for this station are not official NWS values.
T = Trace of Precipitation, MM = Missing Value Source: NWS Daily Summary

Daily Weather History Graph

Daily Weather History Graph

Search for Another Location

Airport or City:

Trip Planner

Search our weather history database for the weather conditions in past years. The results will help you decide how hot, cold, wet, or windy it might be!

Date:

Astronomy

Jan. 16, 2012 Rise Set
Actual Time 7:50 AM CST 5:29 PM CST
Civil Twilight 7:20 AM CST 5:59 PM CST
Nautical Twilight 6:47 AM CST 6:33 PM CST
Astronomical Twilight 6:14 AM CST 7:05 PM CST
Moon 1:00 AM CST (1/16) 11:44 AM CST (1/16)
Length of Visible Light 10h 38m
Length of Day
9h 39m
Last Quarter, 46% of the Moon is Illuminated
Jan 16
Last Quarter
Jan 23
New
Jan 30
First Quarter
Feb 7
Full
Feb 14
Last Quarter

Hourly Weather History & Observations

Time (CST) Temp. Windchill Dew Point Humidity Pressure Visibility Wind Dir Wind Speed Gust Speed Precip Events Conditions
12:15 AM 35.6 °F - 28.4 °F 75% 29.68 in 10.0 mi Calm Calm - N/A   Clear
12:35 AM 32.0 °F - 26.6 °F 80% 29.67 in 10.0 mi Calm Calm - N/A   Clear
12:55 AM 32.0 °F - 26.6 °F 80% 29.67 in 10.0 mi Calm Calm - N/A   Clear
1:15 AM 32.0 °F 28.7 °F 26.6 °F 80% 29.68 in 10.0 mi NNE 3.5 mph - N/A   Clear
1:35 AM 30.2 °F 26.7 °F 26.6 °F 86% 29.68 in 10.0 mi NNW 3.5 mph - N/A   Clear
1:55 AM 30.2 °F 24.3 °F 26.6 °F 86% 29.68 in 10.0 mi NNW 5.8 mph - N/A   Clear
2:15 AM 30.2 °F - 26.6 °F 86% 29.69 in 10.0 mi Calm Calm - N/A   Clear
2:35 AM 30.2 °F - 24.8 °F 80% 29.69 in 10.0 mi Calm Calm - N/A   Clear
2:55 AM 26.6 °F - 23.0 °F 86% 29.69 in 10.0 mi Calm Calm - N/A   Clear
3:15 AM 28.4 °F 24.6 °F 23.0 °F 80% 29.69 in 10.0 mi East 3.5 mph - N/A   Clear
3:35 AM 30.2 °F - 23.0 °F 75% 29.68 in 10.0 mi Calm Calm - N/A   Clear
3:55 AM 30.2 °F - 23.0 °F 75% 29.67 in 10.0 mi Calm Calm - N/A   Clear
4:15 AM 26.6 °F - 23.0 °F 86% 29.68 in 10.0 mi Calm Calm - N/A   Clear
4:35 AM 30.2 °F - 23.0 °F 75% 29.66 in 10.0 mi Calm Calm - N/A   Clear
4:55 AM 30.2 °F 26.7 °F 23.0 °F 75% 29.68 in 10.0 mi NE 3.5 mph - N/A   Clear
5:15 AM 30.2 °F 21.9 °F 24.8 °F 80% 29.67 in 10.0 mi NNE 9.2 mph - N/A   Clear
5:35 AM 32.0 °F 22.5 °F 26.6 °F 80% 29.68 in 10.0 mi NNE 12.7 mph 17.3 mph N/A   Clear
5:55 AM 32.0 °F 24.2 °F 26.6 °F 80% 29.68 in 10.0 mi NNE 9.2 mph - N/A   Clear
6:15 AM 32.0 °F 24.8 °F 26.6 °F 80% 29.69 in 10.0 mi NNE 8.1 mph - N/A   Clear
6:35 AM 32.0 °F 23.6 °F 26.6 °F 80% 29.69 in 10.0 mi NNE 10.4 mph - N/A   Clear
6:55 AM 32.0 °F 23.6 °F 26.6 °F 80% 29.69 in 10.0 mi North 10.4 mph - N/A   Clear
7:15 AM 32.0 °F 23.0 °F 26.6 °F 80% 29.69 in 10.0 mi North 11.5 mph - N/A   Clear
7:35 AM 32.0 °F 22.5 °F 26.6 °F 80% 29.70 in 10.0 mi North 12.7 mph 19.6 mph N/A   Clear
7:55 AM 32.0 °F 23.0 °F 26.6 °F 80% 29.70 in 10.0 mi North 11.5 mph 20.7 mph N/A   Clear
8:15 AM 32.0 °F 22.1 °F 26.6 °F 80% 29.70 in 10.0 mi North 13.8 mph - N/A   Clear
8:35 AM 32.0 °F 23.0 °F 26.6 °F 80% 29.71 in 10.0 mi North 11.5 mph 18.4 mph N/A   Clear
8:55 AM 32.0 °F 21.6 °F 26.6 °F 80% 29.72 in 10.0 mi North 15.0 mph 19.6 mph N/A   Clear
9:15 AM 32.0 °F 22.5 °F 26.6 °F 80% 29.73 in 10.0 mi North 12.7 mph 20.7 mph N/A   Clear
9:35 AM 32.0 °F 22.1 °F 26.6 °F 80% 29.73 in 10.0 mi North 13.8 mph 24.2 mph N/A   Clear
9:55 AM 33.8 °F 22.8 °F 26.6 °F 75% 29.74 in 10.0 mi NNE 18.4 mph 23.0 mph N/A   Clear
10:15 AM 33.8 °F 24.3 °F 26.6 °F 75% 29.74 in 10.0 mi NNE 13.8 mph 20.7 mph N/A   Clear
10:35 AM 33.8 °F 23.2 °F 26.6 °F 75% 29.73 in 10.0 mi NNE 17.3 mph 25.3 mph N/A   Clear
10:55 AM 35.6 °F 25.9 °F 26.6 °F 70% 29.74 in 10.0 mi NNE 16.1 mph 23.0 mph N/A   Clear
11:15 AM 35.6 °F 26.2 °F 26.6 °F 70% 29.74 in 10.0 mi NNE 15.0 mph 19.6 mph N/A   Clear
11:35 AM 35.6 °F 25.5 °F 26.6 °F 70% 29.74 in 10.0 mi North 17.3 mph - N/A   Clear
11:55 AM 37.4 °F 29.3 °F 26.6 °F 65% 29.75 in 10.0 mi North 12.7 mph 17.3 mph N/A   Clear
12:15 PM 37.4 °F 28.9 °F 26.6 °F 65% 29.74 in 10.0 mi NNE 13.8 mph 19.6 mph N/A   Clear
12:35 PM 37.4 °F 29.8 °F 26.6 °F 65% 29.75 in 10.0 mi North 11.5 mph 17.3 mph N/A   Clear
12:55 PM 37.4 °F 28.5 °F 26.6 °F 65% 29.74 in 10.0 mi NNE 15.0 mph 20.7 mph N/A   Clear
1:15 PM 37.4 °F 28.9 °F 26.6 °F 65% 29.73 in 10.0 mi North 13.8 mph 19.6 mph N/A   Clear
1:35 PM 37.4 °F 29.3 °F 26.6 °F 65% 29.71 in 10.0 mi North 12.7 mph 21.9 mph N/A   Clear
1:55 PM 37.4 °F 28.9 °F 26.6 °F 65% 29.73 in 10.0 mi North 13.8 mph 21.9 mph N/A   Clear
2:15 PM 37.4 °F 28.2 °F 23.0 °F 56% 29.73 in 10.0 mi North 16.1 mph 20.7 mph N/A   Clear
2:35 PM 35.6 °F 27.1 °F 23.0 °F 60% 29.74 in 10.0 mi North 12.7 mph 18.4 mph N/A   Clear
2:55 PM 35.6 °F 27.1 °F 23.0 °F 60% 29.74 in 10.0 mi North 12.7 mph 19.6 mph N/A   Clear
3:15 PM 35.6 °F 28.0 °F 23.0 °F 60% 29.75 in 10.0 mi North 10.4 mph - N/A   Scattered Clouds
3:35 PM 33.8 °F 23.9 °F 21.2 °F 60% 29.76 in 10.0 mi NNW 15.0 mph - N/A   Clear
3:55 PM 33.8 °F 24.8 °F 21.2 °F 60% 29.75 in 10.0 mi North 12.7 mph 18.4 mph N/A   Clear
4:15 PM 33.8 °F 24.3 °F 21.2 °F 60% 29.76 in 10.0 mi North 13.8 mph 18.4 mph N/A   Clear
4:35 PM 32.0 °F 23.0 °F 21.2 °F 64% 29.77 in 10.0 mi North 11.5 mph 18.4 mph N/A   Clear
4:55 PM 32.0 °F 22.5 °F 19.4 °F 60% 29.79 in 10.0 mi North 12.7 mph 18.4 mph N/A   Scattered Clouds
5:15 PM 32.0 °F 23.0 °F 19.4 °F 60% 29.80 in 10.0 mi North 11.5 mph 16.1 mph N/A   Overcast
5:35 PM 30.2 °F 20.8 °F 17.6 °F 60% 29.80 in 10.0 mi North 11.5 mph - N/A   Overcast
5:55 PM 30.2 °F 21.9 °F 17.6 °F 60% 29.81 in 10.0 mi North 9.2 mph 18.4 mph N/A   Overcast
6:15 PM 30.2 °F 21.3 °F 17.6 °F 60% 29.82 in 10.0 mi North 10.4 mph 18.4 mph N/A   Overcast
6:35 PM 30.2 °F 19.8 °F 15.8 °F 55% 29.83 in 10.0 mi North 13.8 mph 19.6 mph N/A   Overcast
6:55 PM 28.4 °F 16.2 °F 14.0 °F 55% 29.83 in 10.0 mi North 17.3 mph 24.2 mph N/A   Overcast
7:15 PM 28.4 °F 17.5 °F 14.0 °F 55% 29.84 in 10.0 mi North 13.8 mph 20.7 mph N/A   Overcast
7:35 PM 28.4 °F 16.6 °F 14.0 °F 55% 29.83 in 10.0 mi North 16.1 mph 19.6 mph N/A   Overcast
8:15 PM 26.6 °F 14.7 °F 12.2 °F 55% 29.85 in 10.0 mi North 15.0 mph 21.9 mph N/A   Overcast
8:55 PM 24.8 °F 11.9 °F 12.2 °F 59% 29.87 in 10.0 mi North 16.1 mph 24.2 mph N/A   Overcast
9:15 PM 23.0 °F 11.1 °F 12.2 °F 63% 29.87 in 10.0 mi North 12.7 mph 23.0 mph N/A   Overcast
9:35 PM 23.0 °F 8.7 °F 12.2 °F 63% 29.88 in 10.0 mi North 18.4 mph 25.3 mph N/A   Overcast
9:55 PM 21.2 °F 8.9 °F 12.2 °F 68% 29.93 in 7.0 mi NNW 12.7 mph 21.9 mph N/A Snow Light Snow
10:15 PM 21.2 °F 6.4 °F 14.0 °F 74% 29.92 in 2.0 mi NNW 18.4 mph 21.9 mph N/A Snow Light Snow
10:35 PM 19.4 °F 4.5 °F 15.8 °F 86% 29.93 in 0.5 mi North 17.3 mph 24.2 mph N/A Snow Snow
10:55 PM 19.4 °F 6.0 °F 17.6 °F 93% 29.93 in 0.2 mi NNW 13.8 mph 18.4 mph 0.01 in Snow Heavy Snow
11:15 PM 19.4 °F 5.0 °F 15.8 °F 86% 29.94 in 0.5 mi NNW 16.1 mph 21.9 mph N/A Snow Snow
11:35 PM 17.6 °F 2.7 °F 15.8 °F 93% 29.94 in 0.5 mi NNW 16.1 mph 23.0 mph N/A Snow Snow
11:55 PM 17.6 °F 3.2 °F 14.0 °F 86% 29.97 in 1.5 mi NNW 15.0 mph 25.3 mph N/A Snow Light Snow